Regional Weather Roundup
Issued by NWS

Home | Current Version | Previous Version | Graphics & Text | Print | Product List | Glossary On
Versions: 1 2 3 4 5 6 7 8 9 10 11 12 13 14 15 16 17 18 19 20 21 22 23 24 25 26 27 28 29 30 31 32 33 34 35 36 37 38 39 40 41 42 43 44 45 46 47 48 49 50
371
ASUS43 KOAX 122302
RWRNE

WEATHER ROUNDUP FOR NEBRASKA
NATIONAL WEATHER SERVICE OMAHA NE
500 PM CST FRI FEB 12 2016

NOTES: SATELLITE DATA IS BEING USED TO AUGMENT CLOUD COVER ABOVE
       12000 FEET.
       "FAIR" INDICATES FEW OR NO CLOUDS BELOW 12,000 FEET WITH NO
       SIGNIFICANT WEATHER AND/OR OBSTRUCTIONS TO VISIBILITY.

  * THESE STATIONS DO NOT REPORT WEATHER SUCH AS RAIN...SNOW OR FOG.

NEZ001>004-019>022-054>056-130000-
NEBRASKA PANHANDLE

CITY           SKY/WX    TMP DP  RH WIND       PRES   REMARKS
SCOTTSBLUFF    CLOUDY    36  31  82 SE18      30.29R WCI  26
ALLIANCE       CLOUDY    34  29  82 S9        30.30S WCI  27
CHADRON        CLOUDY    38  29  70 SE8       30.31S WCI  32
KIMBALL        SUNNY     38  31  78 SE14      30.27S WCI  29
SIDNEY         CLOUDY    32  31  96 SE10      30.31S WCI  24
$$

NEZ057>060-069>072-079>082-130000-
SOUTHWEST NEBRASKA

CITY           SKY/WX    TMP DP  RH WIND       PRES   REMARKS
NORTH PLATTE   CLOUDY    32  24  72 E8        30.40R WCI  25
IMPERIAL       CLOUDY    36  29  75 E8        30.37S WCI  30
LEXINGTON      CLOUDY    29  25  87 E10       30.45R WCI  19
MCCOOK         CLOUDY    35  29  78 E12       30.41S WCI  27
$$

NEZ005>010-023>029-035>040-094-130000-
NORTH CENTRAL NEBRASKA

CITY           SKY/WX    TMP DP  RH WIND       PRES   REMARKS
VALENTINE      CLOUDY    25  16  68 E10       30.44R WCI  15
AINSWORTH      CLOUDY    25  16  69 E6        30.44S WCI  18
BROKEN BOW     CLOUDY    27  20  75 E8        30.44R WCI  19
ORD            CLOUDY    25  16  68 NE9       30.49R WCI  15
$$

NEZ041-046>049-061>064-073>077-083>087-130000-
SOUTH CENTRAL NEBRASKA

CITY           SKY/WX    TMP DP  RH WIND       PRES   REMARKS
GRAND ISLAND   CLOUDY    24  15  68 NE12      30.51R WCI  13
AURORA         CLOUDY    24  15  70 NE13      30.51R WCI  12
HASTINGS       CLOUDY    25  15  66 NE10      30.49R WCI  15
HEBRON         MOSUNNY   27  18  69 NE10      30.52R WCI  17
KEARNEY *      CLOUDY    27  19  74 NE12      30.47S WCI  16
YORK           PTCLDY    23  14  68 N15       30.53R WCI  10
$$

NEZ011>018-030>034-042>045-130000-
NORTHEAST NEBRASKA

CITY           SKY/WX    TMP DP  RH WIND       PRES   REMARKS
NORFOLK        CLEAR     17   8  67 N12       30.55R WCI   4
ALBION         CLOUDY    20  11  66 NE7       30.53R WCI  11
BLAIR          CLEAR     17   2  50 N13       30.55R WCI   4
COLUMBUS *     CLOUDY    19   3  49 N13       30.55S WCI   7
FREMONT        CLEAR     19   7  61 N9        30.57R WCI   7
TEKAMAH        CLEAR     16   3  56 N13       30.60R WCI   2
$$

NEZ050>053-065>068-078-088>093-130000-
SOUTHEAST NEBRASKA

CITY           SKY/WX    TMP DP  RH WIND       PRES   REMARKS
LINCOLN        CLEAR     24  13  62 N17       30.56R WCI  11
OMAHA EPPLEY   PTCLDY    19   7  59 N17       30.59R WCI   4
BEATRICE       CLEAR     26  14  61 NE14G20   30.54R WCI  14
FALLS CITY     CLEAR     28  11  48 N13       30.52R WCI  17
NEBRASKA CITY  CLEAR     25  11  54 NE16      30.53R WCI  12
PLATTSMOUTH    CLEAR     20   6  53 N12G18    30.54R WCI   9
$$

NEZ044-045-051>053-067-130000-
OMAHA AREA

CITY           SKY/WX    TMP DP  RH WIND       PRES   REMARKS
OMAHA EPPLEY   PTCLDY    19   7  59 N17       30.59R WCI   4
BLAIR          CLEAR     17   2  50 N13       30.55R WCI   4
FREMONT        CLEAR     19   7  61 N9        30.57R WCI   7
OFFUTT AFB     CLEAR     21   2  43 N8        30.56R WCI  12
PLATTSMOUTH    CLEAR     20   6  53 N12G18    30.54R WCI   9
WAHOO          FAIR      19  11  70 N12       30.56R WCI   7
$$




USA.gov is the U.S. government's official web portal to all federal, state and local government web resources and services.